HAZ2220 ZGHA-ZSHC

Flight info

Callsign HAZ2220
Flight time 0h 59m
Altitude 37100
Route PAT7X PATVO DCT P645 DCT TXN G204 OREXA OREXA81
Aircraft A20N/M-SDE2E3FGHIRWXY/LB1

Departure

Time 2026-04-23 13:47
Airport Changsha Huanghua International Airport (ZGHA)

Arrival

Time 2026-04-23 14:47
Airport Hangzhou Xiaoshan International Airport (ZSHC)
Time Latitude Longitude Altitude Speed Heading
2026-04-23 13:15 28.18817 113.21556 222 ft 0 kts 179°
2026-04-23 13:36 28.18831 113.21556 222 ft 2 kts 179°
2026-04-23 13:36 28.18846 113.21556 222 ft 1 kts 180°
2026-04-23 13:37 28.18856 113.21556 222 ft 2 kts 168°
2026-04-23 13:37 28.18869 113.21548 222 ft 2 kts 130°
2026-04-23 13:37 28.18875 113.21533 222 ft 1 kts 97°
2026-04-23 13:37 28.18875 113.21526 222 ft 1 kts 88°
2026-04-23 13:38 28.18875 113.21523 222 ft 0 kts 91°
2026-04-23 13:39 28.18876 113.21541 222 ft 4 kts 89°
2026-04-23 13:39 28.18877 113.21581 222 ft 5 kts 88°
2026-04-23 13:39 28.18878 113.21626 222 ft 6 kts 86°
2026-04-23 13:39 28.18882 113.21680 222 ft 7 kts 85°
2026-04-23 13:40 28.18886 113.21744 222 ft 8 kts 90°
2026-04-23 13:40 28.18849 113.21793 222 ft 8 kts 165°
2026-04-23 13:40 28.18783 113.21797 222 ft 10 kts 180°
2026-04-23 13:40 28.18709 113.21802 222 ft 11 kts 176°
2026-04-23 13:41 28.18629 113.21806 222 ft 11 kts 175°
2026-04-23 13:41 28.18543 113.21812 222 ft 12 kts 177°
2026-04-23 13:41 28.18451 113.21816 222 ft 13 kts 178°
2026-04-23 13:41 28.18355 113.21823 222 ft 14 kts 175°
2026-04-23 13:42 28.18255 113.21832 222 ft 14 kts 176°
2026-04-23 13:42 28.18152 113.21840 222 ft 15 kts 176°
2026-04-23 13:42 28.18047 113.21841 222 ft 15 kts 184°
2026-04-23 13:42 28.17943 113.21849 222 ft 15 kts 175°
2026-04-23 13:43 28.17835 113.21855 222 ft 15 kts 176°
2026-04-23 13:43 28.17750 113.21873 222 ft 8 kts 135°
2026-04-23 13:43 28.17740 113.21925 222 ft 5 kts 77°
2026-04-23 13:43 28.17743 113.21939 222 ft 0 kts 80°
2026-04-23 13:46 28.17744 113.21946 222 ft 3 kts 80°
2026-04-23 13:46 28.17754 113.22008 222 ft 11 kts 72°
2026-04-23 13:46 28.17842 113.22043 222 ft 18 kts 356°
2026-04-23 13:46 28.18197 113.22021 222 ft 86 kts 356°
2026-04-23 13:47 28.19012 113.21974 223 ft 145 kts 358°
2026-04-23 13:47 28.20114 113.21907 466 ft 169 kts 356°
2026-04-23 13:47 28.21358 113.21821 752 ft 189 kts 357°
2026-04-23 13:47 28.22725 113.21742 1163 ft 202 kts 357°
2026-04-23 13:48 28.24129 113.21666 1943 ft 202 kts 358°
2026-04-23 13:48 28.25521 113.21590 2739 ft 201 kts 358°
2026-04-23 13:48 28.26904 113.21515 3498 ft 201 kts 358°
2026-04-23 13:48 28.28331 113.21438 4113 ft 210 kts 358°
2026-04-23 13:49 28.29822 113.21350 4784 ft 220 kts 357°
2026-04-23 13:49 28.31304 113.21257 5773 ft 214 kts 357°
2026-04-23 13:49 28.32786 113.21164 6667 ft 213 kts 357°
2026-04-23 13:49 28.34247 113.21073 7446 ft 216 kts 357°
2026-04-23 13:50 28.35749 113.20989 8234 ft 218 kts
2026-04-23 13:50 28.37212 113.21392 8944 ft 224 kts 29°
2026-04-23 13:50 28.38309 113.22621 9685 ft 232 kts 56°
2026-04-23 13:50 28.38779 113.24418 10359 ft 246 kts 81°
2026-04-23 13:51 28.38870 113.26375 10954 ft 254 kts 82°
2026-04-23 13:51 28.38955 113.28405 11541 ft 261 kts 82°
2026-04-23 13:51 28.39043 113.30467 12133 ft 268 kts 82°
2026-04-23 13:51 28.39139 113.32585 12724 ft 274 kts 82°
2026-04-23 13:52 28.39239 113.34774 13343 ft 279 kts 82°
2026-04-23 13:52 28.39343 113.36977 13921 ft 285 kts 82°
2026-04-23 13:52 28.39449 113.39225 14528 ft 289 kts 83°
2026-04-23 13:52 28.39559 113.41537 15140 ft 294 kts 83°
2026-04-23 13:53 28.39617 113.43837 15720 ft 300 kts 93°
2026-04-23 13:53 28.38956 113.46064 16282 ft 304 kts 128°
2026-04-23 13:53 28.37384 113.47619 16845 ft 297 kts 162°
2026-04-23 13:53 28.35415 113.48088 17244 ft 292 kts 186°
2026-04-23 13:54 28.33332 113.48076 17571 ft 305 kts 187°
2026-04-23 13:54 28.31169 113.48086 17968 ft 317 kts 186°
2026-04-23 13:54 28.28913 113.48151 18333 ft 330 kts 185°
2026-04-23 13:54 28.26545 113.48253 18604 ft 347 kts 184°
2026-04-23 13:55 28.24100 113.48383 18872 ft 362 kts 183°
2026-04-23 13:55 28.21522 113.48530 19128 ft 377 kts 183°
2026-04-23 13:55 28.18863 113.48684 19372 ft 392 kts 183°
2026-04-23 13:55 28.16067 113.48995 19593 ft 413 kts 172°
2026-04-23 13:56 28.13385 113.50324 19805 ft 438 kts 149°
2026-04-23 13:56 28.11152 113.52822 20054 ft 459 kts 126°
2026-04-23 13:56 28.09669 113.56027 20471 ft 467 kts 115°
2026-04-23 13:56 28.08397 113.59431 20917 ft 473 kts 113°
2026-04-23 13:57 28.07120 113.62854 21346 ft 478 kts 114°
2026-04-23 13:57 28.05768 113.66353 21715 ft 484 kts 114°
2026-04-23 13:57 28.04805 113.69974 22098 ft 491 kts 101°
2026-04-23 13:57 28.04529 113.73844 22551 ft 494 kts 88°
2026-04-23 13:58 28.04873 113.77691 22964 ft 497 kts 81°
2026-04-23 13:58 28.05387 113.81573 23304 ft 502 kts 80°
2026-04-23 13:58 28.05929 113.85480 23651 ft 506 kts 80°
2026-04-23 13:58 28.06463 113.89455 23986 ft 511 kts 81°
2026-04-23 13:59 28.06977 113.93419 24333 ft 515 kts 81°
2026-04-23 13:59 28.07475 113.97400 24812 ft 515 kts 81°
2026-04-23 13:59 28.07968 114.01407 25258 ft 516 kts 82°
2026-04-23 13:59 28.08459 114.05457 25703 ft 518 kts 82°
2026-04-23 14:00 28.08782 114.08144 25991 ft 519 kts 82°
2026-04-23 14:00 28.09429 114.13535 26557 ft 521 kts 82°
2026-04-23 14:00 28.09914 114.17566 26925 ft 523 kts 82°
2026-04-23 14:00 28.10403 114.21647 27319 ft 525 kts 82°
2026-04-23 14:01 28.10893 114.25761 27717 ft 527 kts 83°
2026-04-23 14:01 28.11383 114.29866 28113 ft 528 kts 82°
2026-04-23 14:01 28.11968 114.33937 28528 ft 529 kts 78°
2026-04-23 14:01 28.12793 114.38026 28920 ft 530 kts 74°
2026-04-23 14:02 28.13770 114.42008 29304 ft 532 kts 72°
2026-04-23 14:02 28.14804 114.46029 29645 ft 534 kts 72°
2026-04-23 14:02 28.15856 114.50093 29947 ft 537 kts 73°
2026-04-23 14:02 28.16891 114.54134 30234 ft 541 kts 73°
2026-04-23 14:03 28.17929 114.58217 30576 ft 543 kts 73°
2026-04-23 14:03 28.18969 114.62341 30888 ft 545 kts 73°
2026-04-23 14:03 28.20020 114.66520 31009 ft 553 kts 74°
2026-04-23 14:04 28.22136 114.74982 31007 ft 569 kts 74°
2026-04-23 14:04 28.24309 114.83711 31011 ft 582 kts 74°
2026-04-23 14:05 28.26518 114.92605 31019 ft 592 kts 74°
2026-04-23 14:05 28.28743 115.01593 31140 ft 597 kts 74°
2026-04-23 14:05 28.29856 115.06094 31396 ft 595 kts 74°
2026-04-23 14:06 28.30973 115.10622 31703 ft 591 kts 75°
2026-04-23 14:06 28.32059 115.15032 31943 ft 567 kts 75°
2026-04-23 14:06 28.33094 115.19241 32200 ft 555 kts 74°
2026-04-23 14:06 28.34117 115.23405 32452 ft 548 kts 75°
2026-04-23 14:07 28.35148 115.27616 32607 ft 552 kts 75°
2026-04-23 14:07 28.37208 115.36025 33074 ft 557 kts 75°
2026-04-23 14:07 28.38233 115.40231 33121 ft 557 kts 74°
2026-04-23 14:08 28.40293 115.48682 33135 ft 557 kts 75°
2026-04-23 14:08 28.42358 115.57170 33139 ft 556 kts 75°
2026-04-23 14:09 28.44407 115.65639 33138 ft 556 kts 75°
2026-04-23 14:09 28.46446 115.74071 33143 ft 556 kts 75°
2026-04-23 14:10 28.48484 115.82550 33136 ft 557 kts 75°
2026-04-23 14:10 28.50506 115.90957 33139 ft 557 kts 76°
2026-04-23 14:11 28.52537 115.99434 33149 ft 557 kts 76°
2026-04-23 14:11 28.54560 116.07928 33142 ft 557 kts 75°
2026-04-23 14:12 28.56580 116.16410 33136 ft 557 kts 76°
2026-04-23 14:12 28.58591 116.24882 33134 ft 557 kts 76°
2026-04-23 14:13 28.60597 116.33355 33144 ft 557 kts 76°
2026-04-23 14:13 28.62596 116.41838 33138 ft 557 kts 76°
2026-04-23 14:14 28.64593 116.50337 33138 ft 557 kts 76°
2026-04-23 14:14 28.66587 116.58845 33142 ft 557 kts 76°
2026-04-23 14:15 28.68580 116.67349 33129 ft 557 kts 77°
2026-04-23 14:15 28.70551 116.75815 33134 ft 557 kts 77°
2026-04-23 14:16 28.72529 116.84349 33151 ft 558 kts 77°
2026-04-23 14:16 28.74504 116.92875 33146 ft 558 kts 77°
2026-04-23 14:17 28.76475 117.01408 33140 ft 558 kts 77°
2026-04-23 14:17 28.78442 117.09963 33135 ft 559 kts 77°
2026-04-23 14:18 28.80396 117.18501 33141 ft 559 kts 77°
2026-04-23 14:18 28.82628 117.26969 33139 ft 561 kts 67°
2026-04-23 14:19 28.86386 117.34667 33129 ft 555 kts 49°
2026-04-23 14:19 28.91589 117.41005 33141 ft 544 kts 34°
2026-04-23 14:20 28.97329 117.46659 33144 ft 545 kts 33°
2026-04-23 14:20 29.03033 117.52327 33148 ft 545 kts 34°
2026-04-23 14:21 29.08687 117.58070 33143 ft 545 kts 34°
2026-04-23 14:21 29.14325 117.63845 33144 ft 545 kts 34°
2026-04-23 14:22 29.19964 117.69628 33139 ft 545 kts 35°
2026-04-23 14:22 29.25608 117.75427 33143 ft 546 kts 35°
2026-04-23 14:23 29.31258 117.81243 33145 ft 546 kts 35°
2026-04-23 14:23 29.36899 117.87054 33144 ft 545 kts 35°
2026-04-23 14:24 29.42535 117.92873 33148 ft 545 kts 36°
2026-04-23 14:24 29.48154 117.98681 33135 ft 546 kts 35°
2026-04-23 14:25 29.53774 118.04503 33140 ft 546 kts 36°
2026-04-23 14:25 29.59440 118.10382 33133 ft 547 kts 36°
2026-04-23 14:26 29.65048 118.16210 33139 ft 547 kts 36°
2026-04-23 14:26 29.70585 118.22260 33114 ft 556 kts 48°
2026-04-23 14:27 29.72578 118.26096 33128 ft 560 kts 68°
2026-04-23 14:27 29.73526 118.30348 33132 ft 553 kts 89°
2026-04-23 14:27 29.73443 118.34720 33150 ft 542 kts 103°
2026-04-23 14:27 29.72948 118.38995 33141 ft 543 kts 105°
2026-04-23 14:28 29.71892 118.47555 32882 ft 538 kts 104°
2026-04-23 14:28 29.71443 118.51804 32347 ft 538 kts 103°
2026-04-23 14:28 29.71038 118.56047 31826 ft 535 kts 102°
2026-04-23 14:29 29.70653 118.60283 31348 ft 532 kts 101°
2026-04-23 14:29 29.70275 118.64487 30797 ft 529 kts 101°
2026-04-23 14:29 29.69892 118.68686 30037 ft 527 kts 101°
2026-04-23 14:29 29.69509 118.72854 29147 ft 525 kts 101°
2026-04-23 14:30 29.69128 118.77029 28219 ft 524 kts 101°
2026-04-23 14:30 29.68755 118.81145 27220 ft 524 kts 101°
2026-04-23 14:30 29.68378 118.85309 26178 ft 523 kts 100°
2026-04-23 14:30 29.68004 118.89408 25124 ft 523 kts 100°
2026-04-23 14:31 29.67627 118.93535 24117 ft 520 kts 99°
2026-04-23 14:31 29.67254 118.97623 23437 ft 510 kts 99°
2026-04-23 14:31 29.66889 119.01603 22746 ft 501 kts 99°
2026-04-23 14:31 29.66520 119.05576 22001 ft 494 kts 99°
2026-04-23 14:32 29.66159 119.09434 21280 ft 486 kts 98°
2026-04-23 14:32 29.65869 119.13261 20538 ft 480 kts 91°
2026-04-23 14:32 29.66371 119.16978 19765 ft 473 kts 69°
2026-04-23 14:32 29.67910 119.20241 19130 ft 457 kts 51°
2026-04-23 14:33 29.69787 119.23138 18438 ft 449 kts 49°
2026-04-23 14:33 29.71658 119.25977 17681 ft 443 kts 50°
2026-04-23 14:33 29.73477 119.28777 16972 ft 436 kts 50°
2026-04-23 14:33 29.75259 119.31574 16266 ft 428 kts 51°
2026-04-23 14:34 29.76976 119.34305 15556 ft 420 kts 51°
2026-04-23 14:34 29.78653 119.36995 14843 ft 413 kts 51°
2026-04-23 14:34 29.80300 119.39649 14150 ft 405 kts 52°
2026-04-23 14:34 29.81930 119.42280 13454 ft 397 kts 52°
2026-04-23 14:35 29.83503 119.44824 12751 ft 391 kts 52°
2026-04-23 14:35 29.85073 119.47365 12022 ft 384 kts 52°
2026-04-23 14:35 29.86601 119.49842 11307 ft 378 kts 52°
2026-04-23 14:35 29.88093 119.52261 10591 ft 372 kts 52°
2026-04-23 14:36 29.89583 119.54680 9844 ft 366 kts 52°
2026-04-23 14:36 29.91036 119.57035 9224 ft 357 kts 53°
2026-04-23 14:36 29.92425 119.59293 8903 ft 339 kts 53°
2026-04-23 14:36 29.93762 119.61473 8612 ft 323 kts 53°
2026-04-23 14:37 29.95027 119.63532 8336 ft 307 kts 53°
2026-04-23 14:37 29.96231 119.65492 8096 ft 292 kts 53°
2026-04-23 14:37 29.97363 119.67350 8049 ft 280 kts 56°
2026-04-23 14:37 29.98219 119.69403 8047 ft 293 kts 70°
2026-04-23 14:38 29.98869 119.71735 8062 ft 322 kts 71°
2026-04-23 14:38 29.99550 119.74281 8047 ft 334 kts 71°
2026-04-23 14:38 30.00254 119.76832 8039 ft 340 kts 71°
2026-04-23 14:38 30.01019 119.79524 8041 ft 356 kts 70°
2026-04-23 14:39 30.01808 119.82241 8045 ft 360 kts 71°
2026-04-23 14:39 30.02607 119.84973 8050 ft 360 kts 70°
2026-04-23 14:39 30.03408 119.87697 8047 ft 360 kts 70°
2026-04-23 14:39 30.04209 119.90415 8052 ft 360 kts 70°
2026-04-23 14:40 30.05016 119.93150 8045 ft 359 kts 70°
2026-04-23 14:40 30.05823 119.95879 8036 ft 358 kts 70°
2026-04-23 14:40 30.06619 119.98583 8036 ft 356 kts 70°
2026-04-23 14:40 30.07406 120.01255 7760 ft 347 kts 71°
2026-04-23 14:41 30.08175 120.03867 6909 ft 345 kts 70°
2026-04-23 14:41 30.08937 120.06455 6090 ft 339 kts 70°
2026-04-23 14:41 30.09697 120.08978 5448 ft 332 kts 67°
2026-04-23 14:41 30.10695 120.11375 5100 ft 321 kts 60°
2026-04-23 14:42 30.11720 120.13537 4998 ft 295 kts 59°
2026-04-23 14:42 30.12662 120.15554 4784 ft 278 kts 62°
2026-04-23 14:42 30.13541 120.17507 4430 ft 268 kts 62°
2026-04-23 14:42 30.14369 120.19385 4071 ft 259 kts 62°
2026-04-23 14:43 30.15167 120.21207 3717 ft 251 kts 62°
2026-04-23 14:43 30.15940 120.22977 3370 ft 235 kts 62°
2026-04-23 14:43 30.16641 120.24577 3066 ft 216 kts 62°
2026-04-23 14:43 30.17316 120.26112 2790 ft 212 kts 62°
2026-04-23 14:44 30.17980 120.27618 2514 ft 210 kts 62°
2026-04-23 14:44 30.18628 120.29091 2238 ft 201 kts 61°
2026-04-23 14:44 30.19249 120.30500 2008 ft 190 kts 61°
2026-04-23 14:44 30.19824 120.31803 1788 ft 177 kts 60°
2026-04-23 14:45 30.20369 120.33038 1518 ft 169 kts 61°
2026-04-23 14:45 30.20888 120.34212 1275 ft 160 kts 60°
2026-04-23 14:45 30.21370 120.35304 1080 ft 145 kts 60°
2026-04-23 14:45 30.21810 120.36298 875 ft 137 kts 60°
2026-04-23 14:46 30.22246 120.37281 712 ft 136 kts 60°
2026-04-23 14:46 30.22679 120.38258 539 ft 136 kts 61°
2026-04-23 14:46 30.23110 120.39224 372 ft 135 kts 61°
2026-04-23 14:46 30.23539 120.40196 154 ft 136 kts 61°
2026-04-23 14:47 30.23971 120.41171 40 ft 135 kts 61°
2026-04-23 14:47 30.24372 120.42075 29 ft 106 kts 61°
2026-04-23 14:47 30.24555 120.42673 29 ft 44 kts 93°
2026-04-23 14:47 30.24489 120.42767 29 ft 18 kts 218°
2026-04-23 14:48 30.24372 120.42759 29 ft 17 kts 163°
2026-04-23 14:48 30.24263 120.42801 29 ft 15 kts 154°
2026-04-23 14:48 30.24177 120.42850 29 ft 10 kts 152°
2026-04-23 14:48 30.24111 120.42889 29 ft 11 kts 153°
2026-04-23 14:49 30.24074 120.42911 29 ft 4 kts 153°
2026-04-23 14:49 30.24041 120.42931 29 ft 4 kts 152°
2026-04-23 14:49 30.24010 120.42928 29 ft 5 kts 225°
2026-04-23 14:49 30.23997 120.42897 29 ft 2 kts 243°
2026-04-23 14:50 30.23993 120.42889 29 ft 0 kts 243°
2026-04-23 14:50 30.23992 120.42886 29 ft 0 kts 243°